Weather History for Dumas, TX

Change the Weather History Date:

Thursday, January 16, 2014

  Actual Average (KBGD) Record (KBGD)
Temperature  
Mean Temperature 38 °F 39 °F  
Max Temperature 50 °F 51 °F 71 °F (1952)
Min Temperature 25 °F 26 °F 5 °F (1982)
Degree Days  
Heating Degree Days 28 26  
Month to date heating degree days 434  
Since 1 July heating degree days 1971  
Cooling Degree Days 0 0  
Month to date cooling degree days 0  
Year to date cooling degree days 0  
Moisture  
Dew Point 17 °F    
Average Humidity 45    
Maximum Humidity 69    
Minimum Humidity 26    
Precipitation  
Precipitation 0.00 in 0.03 in 0.26 in (1987)
Month to date precipitation 0.26  
Year to date precipitation 0.26  
Snow  
Snow 0.00 in - 5.00 in (1987)
Month to date snowfall  
Since 1 July snowfall  
Snow Depth -    
Sea Level Pressure  
Sea Level Pressure 30.18 in    
Wind  
Wind Speed 9 mph (NNW)    
Max Wind Speed 21 mph    
Max Gust Speed 30 mph    
Visibility 10 miles    
Events      
T = Trace of Precipitation, MM = Missing Value Source: NWS Daily Summary

Daily Weather History Graph

Daily Weather History Graph

Search for Another Location

Airport:

Trip Planner

Search our weather history database for the weather conditions in past years. The results will help you decide how hot, cold, wet, or windy it might be!

Date:

Astronomy

Jan. 16, 2014 Rise Set
Actual Time 7:57 AM CST 5:58 PM CST
Civil Twilight 7:29 AM CST 6:26 PM CST
Nautical Twilight 6:58 AM CST 6:57 PM CST
Astronomical Twilight 6:27 AM CST 7:28 PM CST
Moon 6:49 PM CST (1/16) 7:54 AM CST (1/16)
Length of Visible Light 10h 57m
Length of Day
10h 01m
Full, 100% of the Moon is Illuminated
Jan 16
Full
Jan 23
Last Quarter
Jan 30
New
Feb 6
First Quarter
Feb 14
Full

Hourly Weather History & Observations

Time (CST) Temp. Windchill Dew Point Humidity Pressure Visibility Wind Dir Wind Speed Gust Speed Precip Events Conditions
12:15 AM 35.1 °F 29.3 °F 18.1 °F 50% 30.01 in 10.0 mi NW 6.9 mph - N/A   Clear
12:35 AM 32.4 °F 25.3 °F 18.0 °F 55% 30.02 in 10.0 mi WNW 8.1 mph - N/A   Clear
12:55 AM 37.2 °F 31.2 °F 18.5 °F 47% 30.02 in 10.0 mi NW 8.1 mph - N/A   Clear
1:15 AM 35.1 °F 29.3 °F 18.3 °F 51% 30.02 in 10.0 mi WNW 6.9 mph - N/A   Clear
1:35 AM 34.3 °F - 18.5 °F 52% 30.03 in 10.0 mi Calm Calm - N/A   Clear
1:55 AM 33.4 °F 25.9 °F 18.5 °F 54% 30.03 in 10.0 mi NNW 9.2 mph - N/A   Clear
2:15 AM 34.3 °F 28.4 °F 18.7 °F 53% 30.05 in 10.0 mi NW 6.9 mph - N/A   Clear
2:35 AM 33.8 °F 26.4 °F 18.7 °F 54% 30.07 in 10.0 mi NNW 9.2 mph - N/A   Clear
2:55 AM 32.9 °F 27.5 °F 18.5 °F 55% 30.07 in 10.0 mi NNW 5.8 mph - N/A   Clear
3:15 AM 33.4 °F 28.1 °F 18.5 °F 54% 30.07 in 10.0 mi NW 5.8 mph - N/A   Clear
3:35 AM 32.9 °F 28.5 °F 18.5 °F 55% 30.07 in 10.0 mi NW 4.6 mph - N/A   Clear
3:55 AM 33.4 °F 28.1 °F 18.5 °F 54% 30.07 in 10.0 mi NW 5.8 mph - N/A   Clear
4:15 AM 33.3 °F 25.7 °F 18.5 °F 55% 30.07 in 10.0 mi NW 9.2 mph - N/A   Clear
4:35 AM 32.7 °F 25.0 °F 18.5 °F 56% 30.07 in 10.0 mi NW 9.2 mph - N/A   Clear
4:55 AM 31.6 °F 23.7 °F 18.1 °F 57% 30.08 in 10.0 mi NW 9.2 mph - N/A   Clear
5:15 AM 32.0 °F 24.8 °F 18.3 °F 57% 30.08 in 10.0 mi NW 8.1 mph - N/A   Clear
5:35 AM 31.5 °F 24.9 °F 18.1 °F 58% 30.09 in 10.0 mi NW 6.9 mph - N/A   Clear
5:55 AM 30.6 °F 23.8 °F 17.6 °F 59% 30.09 in 10.0 mi WNW 6.9 mph - N/A   Clear
6:15 AM 28.6 °F 21.5 °F 17.6 °F 64% 30.10 in 10.0 mi West 6.9 mph - N/A   Clear
6:35 AM 28.9 °F 21.1 °F 18.0 °F 64% 30.11 in 10.0 mi WNW 8.1 mph - N/A   Clear
6:55 AM 27.3 °F 19.9 °F 16.9 °F 65% 30.12 in 10.0 mi WNW 6.9 mph - N/A   Clear
7:15 AM 26.2 °F 19.6 °F 16.9 °F 68% 30.13 in 10.0 mi West 5.8 mph - N/A   Clear
7:35 AM 28.2 °F 19.5 °F 17.8 °F 65% 30.14 in 10.0 mi WNW 9.2 mph - N/A   Clear
7:55 AM 27.0 °F 18.7 °F 16.9 °F 66% 30.15 in 10.0 mi NW 8.1 mph - N/A   Clear
8:15 AM 25.5 °F 17.8 °F 16.5 °F 69% 30.17 in 10.0 mi NW 6.9 mph - N/A   Clear
8:35 AM 27.5 °F 21.1 °F 17.4 °F 66% 30.18 in 10.0 mi NNW 5.8 mph - N/A   Clear
8:55 AM 30.2 °F 25.4 °F 18.5 °F 62% 30.19 in 10.0 mi NNW 4.6 mph - N/A   Clear
9:15 AM 34.7 °F 29.6 °F 20.3 °F 56% 30.21 in 10.0 mi North 5.8 mph - N/A   Clear
9:35 AM 40.3 °F 31.6 °F 19.6 °F 44% 30.23 in 10.0 mi North 17.3 mph 21.9 mph N/A   Clear
9:55 AM 41.5 °F 33.2 °F 19.0 °F 41% 30.25 in 10.0 mi NNE 17.3 mph 25.3 mph N/A   Clear
10:15 AM 41.9 °F 33.4 °F 19.6 °F 41% 30.27 in 10.0 mi NNE 18.4 mph 25.3 mph N/A   Clear
10:35 AM 42.4 °F 33.5 °F 20.3 °F 41% 30.27 in 10.0 mi NE 20.7 mph 29.9 mph N/A   Clear
10:55 AM 43.7 °F 35.4 °F 19.9 °F 39% 30.27 in 10.0 mi NNE 19.6 mph 27.6 mph N/A   Clear
11:15 AM 43.9 °F 35.4 °F 19.4 °F 38% 30.27 in 10.0 mi NNE 20.7 mph 29.9 mph N/A   Clear
11:35 AM 44.6 °F 36.9 °F 19.4 °F 37% 30.27 in 10.0 mi NNE 18.4 mph 25.3 mph N/A   Clear
11:55 AM 45.7 °F 38.6 °F 19.2 °F 35% 30.27 in 10.0 mi North 17.3 mph 21.9 mph N/A   Clear
12:15 PM 46.4 °F 39.5 °F 19.4 °F 34% 30.25 in 10.0 mi North 17.3 mph 24.2 mph N/A   Clear
12:35 PM 46.9 °F - 18.1 °F 32% 30.23 in 10.0 mi North 16.1 mph 25.3 mph N/A   Clear
12:55 PM 48.2 °F - 18.1 °F 30% 30.21 in 10.0 mi NNE 17.3 mph - N/A   Clear
1:15 PM 48.7 °F - 18.0 °F 29% 30.20 in 10.0 mi North 13.8 mph 21.9 mph N/A   Clear
1:35 PM 48.9 °F - 17.6 °F 29% 30.19 in 10.0 mi NNE 15.0 mph 20.7 mph N/A   Clear
1:55 PM 49.3 °F - 16.7 °F 27% 30.19 in 10.0 mi North 16.1 mph 25.3 mph N/A   Clear
2:35 PM 50.0 °F - 16.7 °F 27% 30.18 in 10.0 mi North 15.0 mph 19.6 mph N/A   Clear
2:55 PM 50.0 °F - 16.5 °F 26% 30.19 in 10.0 mi North 13.8 mph 20.7 mph N/A   Clear
3:15 PM 50.2 °F - 16.3 °F 26% 30.18 in 10.0 mi North 15.0 mph 19.6 mph N/A   Clear
3:35 PM 50.0 °F - 16.2 °F 26% 30.18 in 10.0 mi North 15.0 mph 21.9 mph N/A   Clear
3:55 PM 49.3 °F - 16.3 °F 27% 30.18 in 10.0 mi North 11.5 mph 20.7 mph N/A   Clear
4:15 PM 49.6 °F - 16.5 °F 27% 30.18 in 10.0 mi North 13.8 mph - N/A   Clear
4:35 PM 49.1 °F - 16.2 °F 27% 30.19 in 10.0 mi NNE 9.2 mph 16.1 mph N/A   Clear
4:55 PM 48.2 °F - 16.3 °F 28% 30.20 in 10.0 mi North 10.4 mph 16.1 mph N/A   Clear
5:15 PM 46.9 °F - 16.3 °F 29% 30.20 in 10.0 mi North 10.4 mph - N/A   Clear
5:35 PM 45.1 °F 41.4 °F 16.7 °F 32% 30.20 in 10.0 mi North 6.9 mph - N/A   Clear
5:55 PM 41.9 °F 37.5 °F 16.3 °F 36% 30.20 in 10.0 mi North 6.9 mph - N/A   Clear
6:15 PM 38.7 °F 35.2 °F 15.8 °F 39% 30.21 in 10.0 mi North 4.6 mph - N/A   Clear
6:35 PM 37.4 °F 32.8 °F 15.6 °F 41% 30.22 in 10.0 mi North 5.8 mph - N/A   Clear
6:55 PM 37.2 °F 31.9 °F 15.8 °F 42% 30.22 in 10.0 mi North 6.9 mph - N/A   Clear
7:15 PM 38.1 °F 32.9 °F 15.8 °F 40% 30.22 in 10.0 mi NNW 6.9 mph - N/A   Clear
7:35 PM 35.1 °F 31.0 °F 15.1 °F 44% 30.23 in 10.0 mi NW 4.6 mph - N/A   Clear
7:55 PM 37.0 °F 32.4 °F 16.0 °F 42% 30.24 in 10.0 mi NW 5.8 mph - N/A   Clear
8:15 PM 36.3 °F 31.6 °F 15.8 °F 43% 30.24 in 10.0 mi NNW 5.8 mph - N/A   Clear
8:35 PM 37.2 °F 34.7 °F 16.3 °F 43% 30.25 in 10.0 mi North 3.5 mph - N/A   Scattered Clouds
8:55 PM 35.6 °F 31.7 °F 15.8 °F 44% 30.26 in 10.0 mi NNW 4.6 mph - N/A   Mostly Cloudy
9:15 PM 34.9 °F 32.0 °F 15.8 °F 46% 30.27 in 10.0 mi NNW 3.5 mph - N/A   Overcast
9:35 PM 33.8 °F 28.6 °F 15.8 °F 48% 30.27 in 10.0 mi NNW 5.8 mph - N/A   Overcast
9:55 PM 33.6 °F 28.4 °F 15.8 °F 48% 30.28 in 10.0 mi WNW 5.8 mph - N/A   Mostly Cloudy
10:15 PM 34.9 °F 29.0 °F 15.8 °F 46% 30.29 in 10.0 mi WNW 6.9 mph - N/A   Scattered Clouds
10:35 PM 33.4 °F 27.3 °F 15.8 °F 48% 30.29 in 10.0 mi NW 6.9 mph - N/A   Scattered Clouds
10:55 PM 35.2 °F 28.8 °F 15.4 °F 44% 30.29 in 10.0 mi NNW 8.1 mph - N/A   Clear
11:15 PM 35.2 °F 30.3 °F 15.4 °F 44% 30.29 in 10.0 mi NW 5.8 mph - N/A   Scattered Clouds
11:35 PM 34.0 °F 28.8 °F 15.8 °F 47% 30.29 in 10.0 mi NW 5.8 mph - N/A   Mostly Cloudy
11:55 PM 34.9 °F 29.9 °F 16.3 °F 47% 30.29 in 10.0 mi NW 5.8 mph - N/A   Mostly Cloudy